[[{"header":{"parameterUnit":"m.s-1","parameterCategory":1,"la1":30.2991,"la2":30.254,"lo1":-89.0895,"lo2":-89.0444,"dy":0.0017,"dx":0.0017,"nx":28,"ny":28,"refTime":"2025-05-19T09:00:00:Z","depth":0,"parameterNumber":2,"parameterNumberName":"U-component_of_WINDS"},"data":[0,0,0,0,0,0,0,0,0,0,0,0,0,0,0,0,0,0,0,0,0,0,0,0,0,0,0,0,0,0,0,0,0,0,0,0,0,0,0,0,0,0,0,0,0,0,0,0,0,0,0,0,0,0,0,0,0,0,-1.6537,-1.6537,0,-1.6534,-1.6534,-1.6534,-1.6523,-1.6522,-1.6522,-1.6522,-1.652,-1.652,-1.652,0,0,0,0,0,0,0,0,0,0,0,0,0,-1.6534,-1.6534,-1.6537,-1.6537,-1.6537,-1.6534,-1.6534,-1.6534,-1.6523,-1.6522,-1.6522,-1.6522,-1.652,-1.652,-1.652,0,0,0,0,0,0,0,0,0,0,0,0,0,-1.6533,-1.6534,-1.6537,-1.6531,-1.653,-1.6534,-1.6534,-1.6534,-1.6523,-1.6522,-1.6522,-1.6522,-1.652,-1.652,-1.652,-1.653,0,0,-1.6521,-1.6521,0,0,0,0,0,0,0,0,-1.6534,-1.6534,-1.6532,-1.6531,-1.6531,-1.6528,-1.6532,-1.6532,-1.6523,-1.6526,-1.6522,-1.6521,-1.6523,-1.6523,-1.6523,-1.6529,-1.6529,-1.6521,-1.6521,-1.6521,-1.6521,0,0,0,0,0,0,0,-1.6534,-1.6534,-1.6536,-1.6532,-1.6531,-1.6529,-1.6528,-1.6532,-1.6527,-1.6525,-1.6525,-1.6524,-1.6523,-1.6523,-1.6523,-1.6529,-1.6521,-1.6521,-1.6521,-1.6521,-1.6544,-1.6544,0,0,0,0,0,0,-1.6534,-1.6534,-1.6536,-1.6536,-1.6531,-1.6529,-1.6529,-1.6529,-1.6526,-1.6526,-1.6525,-1.6524,-1.6523,-1.6523,-1.6523,-1.6534,-1.6521,-1.6521,-1.6522,-1.6543,-1.6544,-1.6544,0,0,0,0,0,0,-1.6534,-1.6535,-1.6536,-1.6535,-1.6534,-1.653,-1.6531,-1.653,-1.653,-1.6526,-1.6525,-1.6526,-1.6522,-1.6523,-1.6528,-1.6533,-1.6522,-1.6522,-1.6543,-1.6543,-1.6544,-1.6555,0,0,0,0,0,0,-1.6534,-1.6535,-1.6538,-1.6535,-1.6535,-1.6541,-1.6531,-1.653,-1.653,-1.6529,-1.6527,-1.6526,-1.6522,-1.6528,-1.6528,-1.6534,-1.6522,-1.6542,-1.6543,-1.6544,-1.6554,-1.6556,-1.6558,0,0,0,0,0,-1.6534,-1.6541,-1.6538,-1.6538,-1.6538,-1.6541,-1.6541,-1.6536,-1.6531,-1.6534,-1.6532,-1.6526,-1.6533,-1.6528,-1.6529,-1.6534,-1.6542,-1.6543,-1.6544,-1.6554,-1.6556,-1.6558,0,0,0,0,0,0,-1.6545,-1.6541,-1.6537,-1.6543,-1.6543,-1.6539,-1.6543,-1.6539,-1.6539,-1.6538,-1.6532,-1.6532,-1.6538,-1.6537,-1.6532,-1.6544,-1.6536,-1.6538,-1.6544,-1.6546,-1.6548,-1.6548,-1.6522,0,0,0,0,0,-1.6548,-1.6551,-1.6547,-1.6553,-1.6553,-1.6548,-1.6549,-1.6545,-1.6544,-1.6544,-1.6542,-1.6541,-1.6543,-1.6545,-1.6547,-1.6555,-1.6554,-1.6559,-1.6561,-1.6562,-1.6563,-1.6567,-1.6569,-1.6547,-1.6547,-1.6547,0,0,-1.6555,-1.6553,-1.6555,-1.6555,-1.6554,-1.6557,-1.6548,-1.6551,-1.6553,-1.6545,-1.6549,-1.6548,-1.6547,-1.6554,-1.6557,-1.6553,-1.6569,-1.6563,-1.6564,-1.6564,-1.6568,-1.657,-1.6572,-1.6548,-1.6548,-1.6548,0,0,-1.6568,-1.6567,-1.6571,-1.6571,-1.657,-1.6567,-1.6568,-1.6565,-1.6564,-1.6569,-1.6562,-1.6565,-1.6569,-1.6568,-1.6569,-1.6583,-1.6578,-1.6584,-1.6592,-1.6596,-1.6598,-1.66,-1.6604,-1.6606,-1.6585,-1.6585,-1.6585,0,-1.6576,-1.658,-1.6575,-1.6578,-1.6579,-1.6571,-1.6576,-1.6576,-1.6575,-1.6576,-1.6572,-1.6577,-1.6576,-1.6582,-1.6586,-1.6586,-1.6588,-1.6583,-1.6598,-1.66,-1.6601,-1.6605,-1.6607,-1.6585,-1.6585,-1.6585,-1.6585,0,-1.659,-1.6593,-1.6597,-1.6596,-1.6597,-1.6601,-1.6597,-1.6599,-1.6596,-1.6593,-1.6598,-1.6597,-1.6598,-1.66,-1.6597,-1.6606,-1.6604,-1.6599,-1.6592,-1.6604,-1.6608,-1.661,-1.6586,-1.6586,-1.6586,-1.6586,0,0,-1.6609,-1.6606,-1.6607,-1.6607,-1.6606,-1.6608,-1.6612,-1.6613,-1.6615,-1.6615,-1.6618,-1.6622,-1.6618,-1.6618,-1.6615,-1.6619,-1.663,-1.6614,-1.6614,-1.6616,-1.664,-1.6643,-1.6645,-1.6627,-1.6627,-1.6627,-1.664,0,-1.6621,-1.6627,-1.6623,-1.6631,-1.6633,-1.6627,-1.6631,-1.663,-1.6629,-1.6631,-1.6629,-1.6631,-1.6626,-1.6626,-1.663,-1.6628,-1.6634,-1.6627,-1.663,-1.663,-1.6629,-1.6647,-1.665,-1.6662,-1.6642,-1.6642,-1.6642,0,-1.6636,-1.6636,-1.6644,-1.6642,-1.6643,-1.6646,-1.6647,-1.6649,-1.6649,-1.6648,-1.6648,-1.6644,-1.6649,-1.6642,-1.6648,-1.6643,-1.6645,-1.6644,-1.6644,-1.6644,-1.6636,-1.6646,-1.6666,-1.6667,-1.6644,-1.6644,-1.6644,0,-1.6648,-1.6651,-1.6656,-1.6656,-1.6654,-1.6657,-1.6656,-1.6656,-1.6657,-1.6658,-1.6658,-1.666,-1.6661,-1.6663,-1.6659,-1.6655,-1.6666,-1.6659,-1.6665,-1.6665,-1.6666,-1.6666,-1.6685,-1.6669,-1.6669,-1.6668,-1.6668,0,-1.6662,-1.6666,-1.6662,-1.6664,-1.667,-1.6665,-1.6671,-1.667,-1.6669,-1.6672,-1.6667,-1.667,-1.6666,-1.6669,-1.6666,-1.6672,-1.6672,-1.6671,-1.667,-1.6671,-1.6671,-1.6671,-1.667,-1.6669,-1.6669,-1.6669,-1.6669,0,-1.6676,-1.6673,-1.6678,-1.6676,-1.6676,-1.668,-1.6678,-1.6681,-1.6679,-1.6683,-1.6683,-1.6681,-1.6683,-1.6681,-1.6683,-1.6682,-1.6689,-1.6687,-1.6689,-1.6688,-1.6693,-1.6693,-1.6713,-1.6715,-1.6697,-1.6697,-1.6698,0,-1.6685,-1.6688,-1.6687,-1.6688,-1.6688,-1.669,-1.6691,-1.6687,-1.6689,-1.6689,-1.6692,-1.6694,-1.6696,-1.6701,-1.6699,-1.6701,-1.6699,-1.6706,-1.6699,-1.67,-1.6699,-1.6698,-1.6698,-1.6707,-1.6707,-1.6708,-1.6708,0,-1.67,-1.6698,-1.67,-1.6701,-1.6703,-1.6703,-1.6704,-1.6706,-1.6702,-1.6704,-1.6706,-1.6708,-1.671,-1.6713,-1.6714,-1.6714,-1.671,-1.671,-1.6711,-1.6712,-1.6712,-1.6712,-1.6692,-1.6709,-1.6709,-1.6709,-1.6709,-1.6709,-1.6711,-1.6714,-1.6713,-1.6715,-1.6715,-1.6716,-1.6719,-1.6717,-1.6719,-1.6721,-1.6719,-1.6722,-1.6723,-1.6724,-1.6725,-1.6727,-1.6724,-1.6727,-1.6727,-1.6727,-1.6728,-1.6713,-1.6728,-1.6728,-1.6728,-1.6728,-1.6728,0,-1.6726,-1.6725,-1.6727,-1.6728,-1.673,-1.6726,-1.6727,-1.6728,-1.6731,-1.6732,-1.6733,-1.6737,-1.6739,-1.6738,-1.674,-1.6743,-1.6741,-1.6743,-1.6743,-1.6743,-1.6731,-1.6729,-1.6744,-1.6744,-1.6744,-1.6744,-1.6744,-1.6744,-1.6734,-1.6738,-1.6736,-1.6741,-1.6741,-1.6743,-1.6744,-1.6745,-1.6745,-1.6749,-1.6751,-1.675,-1.675,-1.6752,-1.6754,-1.6754,-1.6755,-1.6757,-1.6756,-1.6745,-1.6743,-1.6742,-1.674,-1.6758,-1.6758,-1.6768,-1.6768,-1.6768]},{"header":{"parameterUnit":"m.s-1","parameterCategory":1,"la1":30.2991,"la2":30.254,"lo1":-89.0895,"lo2":-89.0444,"dy":0.0017,"dx":0.0017,"nx":28,"ny":28,"refTime":"2025-05-19T09:00:00:Z","depth":0,"parameterNumber":3,"parameterNumberName":"V-component_of_WINDS"},"data":[0,0,0,0,0,0,0,0,0,0,0,0,0,0,0,0,0,0,0,0,0,0,0,0,0,0,0,0,0,0,0,0,0,0,0,0,0,0,0,0,0,0,0,0,0,0,0,0,0,0,0,0,0,0,0,0,0,0,6.2944,6.2944,0,6.2975,6.2975,6.2976,6.2882,6.288,6.2877,6.2874,6.2903,6.2906,6.291,0,0,0,0,0,0,0,0,0,0,0,0,0,6.28,6.2803,6.2944,6.2944,6.2945,6.2975,6.2975,6.2976,6.2883,6.2879,6.2876,6.2873,6.2902,6.2906,6.291,0,0,0,0,0,0,0,0,0,0,0,0,0,6.285,6.2804,6.2944,6.2902,6.2899,6.2975,6.2975,6.2976,6.2884,6.2879,6.2875,6.2871,6.29,6.2905,6.2911,6.3028,0,0,6.2926,6.2928,0,0,0,0,0,0,0,0,6.2847,6.2855,6.2908,6.2905,6.2901,6.2921,6.2935,6.2993,6.2885,6.2889,6.2874,6.2869,6.2912,6.2916,6.2931,6.3029,6.303,6.2927,6.293,6.2932,6.2933,0,0,0,0,0,0,0,6.2844,6.2854,6.2956,6.2909,6.2905,6.288,6.2883,6.2946,6.2924,6.2889,6.2882,6.2887,6.2909,6.2926,6.2931,6.3031,6.2927,6.2931,6.2934,6.2936,6.3225,6.3229,0,0,0,0,0,0,6.2846,6.2851,6.2955,6.2957,6.2863,6.2887,6.2889,6.2919,6.2923,6.292,6.2891,6.2882,6.292,6.2925,6.2932,6.3068,6.2932,6.2937,6.294,6.322,6.3226,6.3231,0,0,0,0,0,0,6.2844,6.2857,6.2954,6.2902,6.2913,6.2894,6.2927,6.2922,6.2938,6.2925,6.292,6.2912,6.2917,6.2924,6.3004,6.3068,6.2939,6.2944,6.3215,6.3222,6.3228,6.3343,0,0,0,0,0,0,6.284,6.2856,6.2902,6.2904,6.2916,6.3028,6.2931,6.2925,6.2948,6.2938,6.2944,6.2941,6.2914,6.2997,6.301,6.3073,6.2948,6.3209,6.3218,6.3226,6.3334,6.3353,6.337,0,0,0,0,0,6.2835,6.2932,6.2904,6.2917,6.2973,6.3031,6.3038,6.3006,6.2953,6.2998,6.2989,6.294,6.3059,6.3006,6.3019,6.3085,6.3205,6.3216,6.3226,6.3326,6.335,6.337,0,0,0,0,0,0,6.2937,6.2932,6.2901,6.3002,6.3018,6.3016,6.3071,6.3032,6.3063,6.3052,6.301,6.3012,6.3099,6.31,6.3041,6.3198,6.3123,6.3136,6.3195,6.3217,6.3235,6.3233,6.2952,0,0,0,0,0,6.2971,6.3021,6.3013,6.3103,6.3113,6.3091,6.3115,6.3089,6.3104,6.311,6.3106,6.3122,6.3162,6.3189,6.3226,6.3333,6.3333,6.3385,6.3403,6.3418,6.343,6.3486,6.3509,6.3265,6.3265,6.3264,0,0,6.3042,6.3046,6.3079,6.3123,6.3133,6.3184,6.3097,6.3155,6.3192,6.3118,6.3193,6.3192,6.3205,6.33,6.3341,6.3303,6.3497,6.3431,6.3443,6.3447,6.3499,6.3522,6.3543,6.3272,6.3271,6.3269,0,0,6.3198,6.3206,6.3281,6.3292,6.3308,6.3292,6.3311,6.3314,6.3311,6.3386,6.3331,6.3374,6.3445,6.3457,6.3472,6.3632,6.3588,6.3645,6.3739,6.3794,6.3813,6.383,6.3886,6.3907,6.3657,6.3657,6.3657,0,6.3284,6.3359,6.3324,6.3386,6.3406,6.3343,6.3418,6.343,6.3456,6.3471,6.3429,6.3516,6.3521,6.3616,6.3655,6.367,6.3688,6.3644,6.3814,6.383,6.3845,6.3898,6.392,6.3664,6.3663,6.3662,6.3662,0,6.3464,6.3517,6.3576,6.3604,6.3631,6.3699,6.3673,6.3704,6.3676,6.3665,6.3741,6.3745,6.3781,6.3802,6.3774,6.3893,6.3869,6.3821,6.3744,6.3876,6.3925,6.3945,6.3673,6.3671,6.3669,6.3667,0,0,6.3685,6.3692,6.3714,6.3726,6.3738,6.3778,6.3842,6.3878,6.3905,6.3925,6.3978,6.4039,6.3994,6.4012,6.3985,6.4033,6.4158,6.3979,6.3978,6.4011,6.4289,6.4325,6.4349,6.4129,6.4133,6.4136,6.4287,0,6.3837,6.3949,6.3919,6.403,6.4078,6.4018,6.4074,6.4087,6.4078,6.4116,6.4106,6.415,6.4088,6.4098,6.4143,6.4134,6.4213,6.4122,6.4176,6.4179,6.4175,6.4375,6.4413,6.4555,6.4306,6.4309,6.4312,0,6.403,6.4059,6.4175,6.4179,6.4197,6.4249,6.4278,6.4316,6.4329,6.4319,6.4339,6.4302,6.4364,6.4288,6.4372,6.4311,6.4331,6.433,6.4334,6.4338,6.4253,6.4383,6.46,6.4622,6.4342,6.4339,6.4337,0,6.4179,6.4246,6.4324,6.4336,6.4342,6.4379,6.4383,6.4392,6.4415,6.4441,6.4455,6.4488,6.4506,6.4531,6.4503,6.4451,6.4592,6.4513,6.4584,6.4585,6.4617,6.4615,6.484,6.4631,6.4631,6.463,6.463,0,6.4352,6.4426,6.4391,6.4439,6.4518,6.4482,6.4562,6.4559,6.4567,6.4612,6.4562,6.4605,6.4567,6.4606,6.4585,6.4657,6.4666,6.4659,6.4652,6.4663,6.4664,6.4676,6.4665,6.4636,6.4634,6.4633,6.4632,0,6.4532,6.4512,6.4592,6.4592,6.4593,6.4652,6.465,6.4694,6.4681,6.4739,6.4751,6.4731,6.4775,6.475,6.4795,6.478,6.4874,6.4854,6.4871,6.4865,6.4937,6.4931,6.5177,6.5207,6.498,6.4982,6.4984,0,6.4644,6.4699,6.4704,6.4731,6.4739,6.4783,6.4807,6.4773,6.4799,6.4818,6.4859,6.4899,6.4928,6.5001,6.499,6.5024,6.5004,6.5088,6.5008,6.5018,6.5004,6.5001,6.5006,6.5104,6.5106,6.5109,6.511,0,6.4844,6.4831,6.4868,6.4901,6.4931,6.4955,6.4974,6.4999,6.4965,6.4997,6.5042,6.5065,6.5111,6.5151,6.518,6.5182,6.5141,6.5135,6.5154,6.5165,6.5172,6.5169,6.4914,6.513,6.5128,6.5127,6.5125,6.5125,6.4993,6.5039,6.5049,6.5091,6.5103,6.5122,6.5163,6.5156,6.5192,6.5228,6.5205,6.5258,6.5268,6.5302,6.531,6.535,6.5316,6.5342,6.5349,6.5356,6.5365,6.5166,6.5355,6.5354,6.5354,6.5353,6.5353,0,6.519,6.5194,6.5233,6.5263,6.5295,6.5254,6.5274,6.5303,6.535,6.5364,6.5394,6.5445,6.5483,6.5475,6.5509,6.5543,6.5524,6.5553,6.555,6.5551,6.5394,6.5375,6.5567,6.5567,6.5567,6.5567,6.5567,6.5567,6.5297,6.5372,6.536,6.544,6.5443,6.5494,6.5509,6.5526,6.5536,6.5596,6.5627,6.5622,6.5626,6.566,6.5693,6.5689,6.5704,6.574,6.5729,6.5583,6.5562,6.5542,6.5523,6.5743,6.5743,6.5882,6.5883,6.5884]}]]